Terminal Aerodrome Forecast
Issued by NWS

Current Version | Previous Version | Graphics & Text | Print | Product List | Glossary On
Versions: 1 2 3 4 5 6 7 8 9 10 11 12 13 14 15 16 17 18 19 20 21 22 23 24 25 26 27 28 29 30 31 32 33 34 35 36 37 38 39 40 41 42 43 44 45 46 47 48 49
000
FTUS41 KRNK 281450 AAB
TAFLWB
TAF AMD
KLWB 281450Z 2815/2912 VRB03KT P6SM SCT015 BKN020
     FM281700 26004KT P6SM SCT020 BKN040
      TEMPO 2820/2822 2SM TSRA OVC025CB
     FM290500 00000KT P6SM SHRA VCTS OVC015CB
     FM290700 VRB03KT P6SM OVC010=

USA.gov is the U.S. government's official web portal to all federal, state and local government web resources and services.